Time,TemperatureF,DewpointF,PressureIn,WindDirection,WindDirectionDegrees,WindSpeedMPH,WindSpeedGustMPH,Humidity,HourlyPrecipIn,Conditions,Clouds,dailyrainin,SolarRadiationWatts/m^2,SoftwareType,DateUTC
2013-05-22 00:12:00,73.0,69.0,-100.00,ESE,112,2.0,4.0,88,0.00,,,0.00,0.000000,,2013-05-22 05:12:00,
2013-05-22 00:21:00,73.0,69.0,-100.00,ESE,112,2.0,4.0,88,0.00,,,0.00,0.000000,,2013-05-22 05:21:00,
2013-05-22 00:32:00,73.0,69.0,-100.00,ESE,112,2.0,4.0,88,0.00,,,0.00,0.000000,,2013-05-22 05:32:00,
2013-05-22 00:42:00,73.0,69.0,-100.00,ESE,112,2.0,4.0,88,0.00,,,0.00,0.000000,,2013-05-22 05:42:00,
2013-05-22 00:50:00,72.0,69.0,-100.00,NE,41,0.0,3.0,90,0.00,,,0.00,0.000000,,2013-05-22 05:50:00,
2013-05-22 01:12:00,72.0,69.0,-100.00,NE,41,0.0,3.0,90,0.00,,,0.00,0.000000,,2013-05-22 06:12:00,
2013-05-22 01:21:00,72.0,69.0,-100.00,NE,41,0.0,3.0,90,0.00,,,0.00,0.000000,,2013-05-22 06:21:00,
2013-05-22 01:32:00,72.0,69.0,-100.00,NE,41,0.0,3.0,90,0.00,,,0.00,0.000000,,2013-05-22 06:32:00,
2013-05-22 01:42:00,72.0,69.0,-100.00,NE,41,0.0,3.0,90,0.00,,,0.00,0.000000,,2013-05-22 06:42:00,
2013-05-22 01:50:00,72.0,70.0,-100.00,SSE,157,1.0,3.0,92,0.00,,,0.00,0.000000,,2013-05-22 06:50:00,
2013-05-22 02:11:00,72.0,70.0,-100.00,SSE,157,1.0,3.0,92,0.00,,,0.00,0.000000,,2013-05-22 07:11:00,
2013-05-22 02:21:00,72.0,70.0,-100.00,SSE,157,1.0,3.0,92,0.00,,,0.00,0.000000,,2013-05-22 07:21:00,
2013-05-22 02:32:00,72.0,70.0,-100.00,SSE,157,1.0,3.0,92,0.00,,,0.00,0.000000,,2013-05-22 07:32:00,
2013-05-22 02:42:00,72.0,70.0,-100.00,SSE,157,1.0,3.0,92,0.00,,,0.00,0.000000,,2013-05-22 07:42:00,
2013-05-22 02:50:00,70.0,68.0,-100.00,NNE,13,0.0,2.0,92,0.00,,,0.00,0.000000,,2013-05-22 07:50:00,
2013-05-22 03:11:00,70.0,68.0,-100.00,NNE,13,0.0,2.0,92,0.00,,,0.00,0.000000,,2013-05-22 08:11:00,
2013-05-22 03:22:00,70.0,68.0,-100.00,NNE,13,0.0,2.0,92,0.00,,,0.00,0.000000,,2013-05-22 08:22:00,
2013-05-22 03:32:00,70.0,68.0,-100.00,NNE,13,0.0,2.0,92,0.00,,,0.00,0.000000,,2013-05-22 08:32:00,
2013-05-22 03:42:00,70.0,68.0,-100.00,NNE,13,0.0,2.0,92,0.00,,,0.00,0.000000,,2013-05-22 08:42:00,
2013-05-22 03:50:00,69.0,67.0,-100.00,NNW,332,2.0,4.0,94,0.00,,,0.00,0.000000,,2013-05-22 08:50:00,
2013-05-22 04:12:00,69.0,67.0,-100.00,NNW,332,2.0,4.0,94,0.00,,,0.00,0.000000,,2013-05-22 09:12:00,
2013-05-22 04:22:00,69.0,67.0,-100.00,NNW,332,2.0,4.0,94,0.00,,,0.00,0.000000,,2013-05-22 09:22:00,
2013-05-22 04:33:00,69.0,67.0,-100.00,NNW,332,2.0,4.0,94,0.00,,,0.00,0.000000,,2013-05-22 09:33:00,
2013-05-22 04:42:00,69.0,67.0,-100.00,NNW,332,2.0,4.0,94,0.00,,,0.00,0.000000,,2013-05-22 09:42:00,
2013-05-22 04:50:00,68.0,66.0,-100.00,NE,43,0.0,4.0,94,0.00,,,0.00,0.000000,,2013-05-22 09:50:00,
2013-05-22 05:12:00,68.0,66.0,-100.00,NE,43,0.0,4.0,94,0.00,,,0.00,0.000000,,2013-05-22 10:12:00,
2013-05-22 05:23:00,68.0,66.0,-100.00,NE,43,0.0,4.0,94,0.00,,,0.00,0.000000,,2013-05-22 10:23:00,
2013-05-22 05:33:00,68.0,66.0,-100.00,NE,43,0.0,4.0,94,0.00,,,0.00,0.000000,,2013-05-22 10:33:00,
2013-05-22 05:42:00,68.0,66.0,-100.00,NE,43,0.0,4.0,94,0.00,,,0.00,0.000000,,2013-05-22 10:42:00,
2013-05-22 05:50:00,68.0,67.0,-100.00,NNE,31,1.0,4.0,95,0.00,,,-99.99,0.000000,,2013-05-22 10:50:00,
2013-05-22 06:11:00,68.0,67.0,-100.00,NNE,31,1.0,4.0,95,0.00,,,-99.99,0.000000,,2013-05-22 11:11:00,
2013-05-22 06:22:00,68.0,67.0,-100.00,NNE,31,1.0,4.0,95,0.00,,,-99.99,0.000000,,2013-05-22 11:22:00,
2013-05-22 06:32:00,68.0,67.0,-100.00,NNE,31,1.0,4.0,95,0.00,,,-99.99,0.000000,,2013-05-22 11:32:00,
2013-05-22 06:42:00,68.0,67.0,-100.00,NNE,31,1.0,4.0,95,0.00,,,-99.99,0.000000,,2013-05-22 11:42:00,
2013-05-22 06:50:00,69.0,68.0,-100.00,North,351,2.0,3.0,95,0.00,,,0.00,38.000000,,2013-05-22 11:50:00,
2013-05-22 07:12:00,69.0,68.0,-100.00,North,351,2.0,3.0,95,0.00,,,0.00,38.000000,,2013-05-22 12:12:00,
2013-05-22 07:22:00,69.0,68.0,-100.00,North,351,2.0,3.0,95,0.00,,,0.00,38.000000,,2013-05-22 12:22:00,
2013-05-22 07:32:00,69.0,68.0,-100.00,North,351,2.0,3.0,95,0.00,,,0.00,38.000000,,2013-05-22 12:32:00,
2013-05-22 07:42:00,69.0,68.0,-100.00,North,351,2.0,3.0,95,0.00,,,0.00,38.000000,,2013-05-22 12:42:00,
2013-05-22 07:50:00,70.0,68.0,-100.00,NNE,16,4.0,8.0,95,0.00,,,0.00,82.000000,,2013-05-22 12:50:00,
2013-05-22 08:12:00,70.0,68.0,-100.00,NNE,16,4.0,8.0,95,0.00,,,0.00,82.000000,,2013-05-22 13:12:00,
2013-05-22 08:22:00,70.0,68.0,-100.00,NNE,16,4.0,8.0,95,0.00,,,0.00,82.000000,,2013-05-22 13:22:00,
2013-05-22 08:32:00,70.0,68.0,-100.00,NNE,16,4.0,8.0,95,0.00,,,0.00,82.000000,,2013-05-22 13:32:00,
2013-05-22 08:42:00,70.0,68.0,-100.00,NNE,16,4.0,8.0,95,0.00,,,0.00,82.000000,,2013-05-22 13:42:00,
2013-05-22 08:50:00,70.0,68.0,-100.00,NNW,343,6.0,11.0,92,0.00,,,0.00,53.000000,,2013-05-22 13:50:00,
2013-05-22 09:11:00,70.0,68.0,-100.00,NNW,343,6.0,11.0,92,0.00,,,0.00,53.000000,,2013-05-22 14:11:00,
2013-05-22 09:21:00,70.0,68.0,-100.00,NNW,343,6.0,11.0,92,0.00,,,0.00,53.000000,,2013-05-22 14:21:00,
2013-05-22 09:32:00,70.0,68.0,-100.00,NNW,343,6.0,11.0,92,0.00,,,0.00,53.000000,,2013-05-22 14:32:00,
2013-05-22 09:42:00,70.0,68.0,-100.00,NNW,343,6.0,11.0,92,0.00,,,0.00,53.000000,,2013-05-22 14:42:00,
2013-05-22 09:50:00,68.0,65.0,-100.00,NNE,20,2.0,21.0,91,0.55,,,0.55,17.000000,,2013-05-22 14:50:00,
2013-05-22 10:11:00,68.0,65.0,-100.00,NNE,20,2.0,21.0,91,0.55,,,0.55,17.000000,,2013-05-22 15:11:00,
2013-05-22 10:22:00,68.0,65.0,-100.00,NNE,20,2.0,21.0,91,0.55,,,0.55,17.000000,,2013-05-22 15:22:00,
2013-05-22 10:32:00,68.0,65.0,-100.00,NNE,20,2.0,21.0,91,0.55,,,0.55,17.000000,,2013-05-22 15:32:00,
2013-05-22 10:42:00,68.0,65.0,-100.00,NNE,20,2.0,21.0,91,0.55,,,0.55,17.000000,,2013-05-22 15:42:00,
2013-05-22 10:50:00,68.0,66.0,-100.00,ENE,78,5.0,9.0,92,0.04,,,0.59,90.000000,,2013-05-22 15:50:00,
2013-05-22 11:12:00,68.0,66.0,-100.00,ENE,78,5.0,9.0,92,0.04,,,0.59,90.000000,,2013-05-22 16:12:00,
2013-05-22 11:23:00,68.0,66.0,-100.00,ENE,78,5.0,9.0,92,0.04,,,0.59,90.000000,,2013-05-22 16:23:00,
2013-05-22 11:32:00,68.0,66.0,-100.00,ENE,78,5.0,9.0,92,0.04,,,0.59,90.000000,,2013-05-22 16:32:00,
2013-05-22 11:42:00,68.0,66.0,-100.00,ENE,78,5.0,9.0,92,0.04,,,0.59,90.000000,,2013-05-22 16:42:00,
2013-05-22 11:50:00,70.0,66.0,-100.00,East,99,6.0,14.0,88,0.01,,,0.60,235.000000,,2013-05-22 16:50:00,
2013-05-22 12:11:00,70.0,66.0,-100.00,East,99,6.0,14.0,88,0.01,,,0.60,235.000000,,2013-05-22 17:11:00,
2013-05-22 12:23:00,70.0,66.0,-100.00,East,99,6.0,14.0,88,0.01,,,0.60,235.000000,,2013-05-22 17:23:00,
2013-05-22 12:33:00,70.0,66.0,-100.00,East,99,6.0,14.0,88,0.01,,,0.60,235.000000,,2013-05-22 17:33:00,
2013-05-22 12:42:00,70.0,66.0,-100.00,East,99,6.0,14.0,88,0.01,,,0.60,235.000000,,2013-05-22 17:42:00,
2013-05-22 12:50:00,72.0,67.0,-100.00,NNE,19,1.0,11.0,83,0.00,,,0.60,288.000000,,2013-05-22 17:50:00,
2013-05-22 13:14:00,72.0,67.0,-100.00,NNE,19,1.0,11.0,83,0.00,,,0.60,288.000000,,2013-05-22 18:14:00,
2013-05-22 13:22:00,72.0,67.0,-100.00,NNE,19,1.0,11.0,83,0.00,,,0.60,288.000000,,2013-05-22 18:22:00,
2013-05-22 13:33:00,72.0,67.0,-100.00,NNE,19,1.0,11.0,83,0.00,,,0.60,288.000000,,2013-05-22 18:33:00,
2013-05-22 13:42:00,72.0,67.0,-100.00,NNE,19,1.0,11.0,83,0.00,,,0.60,288.000000,,2013-05-22 18:42:00,
2013-05-22 13:50:00,75.0,67.0,-100.00,NNW,336,5.0,8.0,75,0.00,,,0.60,448.000000,,2013-05-22 18:50:00,
2013-05-22 14:11:00,75.0,67.0,-100.00,NNW,336,5.0,8.0,75,0.00,,,0.60,448.000000,,2013-05-22 19:11:00,
2013-05-22 14:21:00,75.0,67.0,-100.00,NNW,336,5.0,8.0,75,0.00,,,0.60,448.000000,,2013-05-22 19:21:00,
2013-05-22 14:32:00,75.0,67.0,-100.00,NNW,336,5.0,8.0,75,0.00,,,0.60,448.000000,,2013-05-22 19:32:00,
2013-05-22 14:42:00,75.0,67.0,-100.00,NNW,336,5.0,8.0,75,0.00,,,0.60,448.000000,,2013-05-22 19:42:00,
2013-05-22 14:50:00,80.0,66.0,-100.00,SE,146,2.0,7.0,63,0.00,,,0.60,602.000000,,2013-05-22 19:50:00,
2013-05-22 15:11:00,80.0,66.0,-100.00,SE,146,2.0,7.0,63,0.00,,,0.60,602.000000,,2013-05-22 20:11:00,
2013-05-22 15:22:00,80.0,66.0,-100.00,SE,146,2.0,7.0,63,0.00,,,0.60,602.000000,,2013-05-22 20:22:00,
2013-05-22 15:32:00,80.0,66.0,-100.00,SE,146,2.0,7.0,63,0.00,,,0.60,602.000000,,2013-05-22 20:32:00,
2013-05-22 15:42:00,80.0,66.0,-100.00,SE,146,2.0,7.0,63,0.00,,,0.60,602.000000,,2013-05-22 20:42:00,
2013-05-22 15:50:00,81.0,66.0,-100.00,West,260,3.0,7.0,61,0.00,,,0.60,499.000000,,2013-05-22 20:50:00,
2013-05-22 16:11:00,81.0,66.0,-100.00,West,260,3.0,7.0,61,0.00,,,0.60,499.000000,,2013-05-22 21:11:00,
2013-05-22 16:21:00,81.0,66.0,-100.00,West,260,3.0,7.0,61,0.00,,,0.60,499.000000,,2013-05-22 21:21:00,
2013-05-22 16:32:00,81.0,66.0,-100.00,West,260,3.0,7.0,61,0.00,,,0.60,499.000000,,2013-05-22 21:32:00,
2013-05-22 16:42:00,81.0,66.0,-100.00,West,260,3.0,7.0,61,0.00,,,0.60,499.000000,,2013-05-22 21:42:00,
2013-05-22 17:50:00,79.0,67.0,-100.00,WSW,242,4.0,9.0,66,-99.99,,,0.60,208.000000,,2013-05-22 22:50:00,
2013-05-22 18:12:00,79.0,67.0,-100.00,WSW,242,4.0,9.0,66,-99.99,,,0.60,208.000000,,2013-05-22 23:12:00,
2013-05-22 18:21:00,79.0,67.0,-100.00,WSW,242,4.0,9.0,66,-99.99,,,0.60,208.000000,,2013-05-22 23:21:00,
2013-05-22 18:32:00,79.0,67.0,-100.00,WSW,242,4.0,9.0,66,-99.99,,,0.60,208.000000,,2013-05-22 23:32:00,
2013-05-22 18:42:00,79.0,67.0,-100.00,WSW,242,4.0,9.0,66,-99.99,,,0.60,208.000000,,2013-05-22 23:42:00,
2013-05-22 18:50:00,79.0,67.0,-100.00,West,263,3.0,7.0,67,0.00,,,0.60,162.000000,,2013-05-22 23:50:00,
2013-05-22 19:11:00,79.0,67.0,-100.00,West,263,3.0,7.0,67,0.00,,,0.60,162.000000,,2013-05-23 00:11:00,
2013-05-22 19:22:00,79.0,67.0,-100.00,West,263,3.0,7.0,67,0.00,,,0.60,162.000000,,2013-05-23 00:22:00,
2013-05-22 19:32:00,79.0,67.0,-100.00,West,263,3.0,7.0,67,0.00,,,0.60,162.000000,,2013-05-23 00:32:00,
2013-05-22 19:42:00,79.0,67.0,-100.00,West,263,3.0,7.0,67,0.00,,,0.60,162.000000,,2013-05-23 00:42:00,
2013-05-22 19:50:00,75.0,68.0,-100.00,South,181,0.0,5.0,79,0.00,,,0.60,48.000000,,2013-05-23 00:50:00,
2013-05-22 20:11:00,75.0,68.0,-100.00,South,181,0.0,5.0,79,0.00,,,0.60,48.000000,,2013-05-23 01:11:00,
2013-05-22 20:22:00,75.0,68.0,-100.00,South,181,0.0,5.0,79,0.00,,,0.60,48.000000,,2013-05-23 01:22:00,
2013-05-22 20:32:00,75.0,68.0,-100.00,South,181,0.0,5.0,79,0.00,,,0.60,48.000000,,2013-05-23 01:32:00,
2013-05-22 20:42:00,75.0,68.0,-100.00,South,181,0.0,5.0,79,0.00,,,0.60,48.000000,,2013-05-23 01:42:00,
2013-05-22 20:50:00,73.0,69.0,-100.00,ENE,78,0.0,2.0,87,0.00,,,0.60,1.000000,,2013-05-23 01:50:00,
2013-05-22 21:11:00,73.0,69.0,-100.00,ENE,78,0.0,2.0,87,0.00,,,0.60,1.000000,,2013-05-23 02:11:00,
2013-05-22 21:21:00,73.0,69.0,-100.00,ENE,78,0.0,2.0,87,0.00,,,0.60,1.000000,,2013-05-23 02:21:00,
2013-05-22 21:32:00,73.0,69.0,-100.00,ENE,78,0.0,2.0,87,0.00,,,0.60,1.000000,,2013-05-23 02:32:00,
2013-05-22 21:42:00,73.0,69.0,-100.00,ENE,78,0.0,2.0,87,0.00,,,0.60,1.000000,,2013-05-23 02:42:00,
2013-05-22 21:50:00,71.0,68.0,-100.00,SE,135,0.0,2.0,89,0.00,,,0.60,0.000000,,2013-05-23 02:50:00,
2013-05-22 22:11:00,71.0,68.0,-100.00,SE,135,0.0,2.0,89,0.00,,,0.60,0.000000,,2013-05-23 03:11:00,
2013-05-22 22:21:00,71.0,68.0,-100.00,SE,135,0.0,2.0,89,0.00,,,0.60,0.000000,,2013-05-23 03:21:00,
2013-05-22 22:33:00,71.0,68.0,-100.00,SE,135,0.0,2.0,89,0.00,,,0.60,0.000000,,2013-05-23 03:33:00,
2013-05-22 22:43:00,71.0,68.0,-100.00,SE,135,0.0,2.0,89,0.00,,,0.60,0.000000,,2013-05-23 03:43:00,
2013-05-22 22:50:00,70.0,67.0,-100.00,ESE,116,0.0,2.0,91,0.00,,,0.60,0.000000,,2013-05-23 03:50:00,
2013-05-22 23:12:00,70.0,67.0,-100.00,ESE,116,0.0,2.0,91,0.00,,,0.60,0.000000,,2013-05-23 04:12:00,
2013-05-22 23:22:00,70.0,67.0,-100.00,ESE,116,0.0,2.0,91,0.00,,,0.60,0.000000,,2013-05-23 04:22:00,
2013-05-22 23:33:00,70.0,67.0,-100.00,ESE,116,0.0,2.0,91,0.00,,,0.60,0.000000,,2013-05-23 04:33:00,
2013-05-22 23:42:00,70.0,67.0,-100.00,ESE,116,0.0,2.0,91,0.00,,,0.60,0.000000,,2013-05-23 04:42:00,
2013-05-22 23:50:00,70.0,68.0,-100.00,West,264,1.0,2.0,92,0.00,,,0.60,0.000000,,2013-05-23 04:50:00,